User: anonymous   Login
Location: ??? ???
(33.4974°N, 35.4618°E)
Time: 22:44:19
(UTC+00:00)
Language:

Cosmos 2278 - Orbit

View from above orbital plane
View from above orbital plane
View from above satellite
View from above satellite

Ground track
Ground track

The orbit data is extracted from the following two-line orbital elements,

1 23087U 94023A   21017.76814815 -.00000218  00000-0 -90078-4 0  9990
2 23087  71.0550 139.6978 0008903 356.4285   3.6772 14.13823567379482
Epoch (UTC): 17 January 2021 18:26:08
Eccentricity: 0.0008903
inclination: 71.0550°
perigee height: 840 km
apogee height: 853 km
right ascension of ascending node: 139.6978°
argument of perigee: 356.4285°
revolutions per day: 14.13823567
mean anomaly at epoch: 3.6772°
orbit number at epoch: 37948

The dashed part of the orbit path shows where the satellite is in the earth's shadow,  

DLR